Location: Barruelo
(41.2448°N, 3.8231°W)
Time: 06:22:03
(UTC+00:00)

SOZ - Pass Details

Date: 20 March 2026
Orbit: 299 x 12047 km, 52.0° (Epoch: 14 April)

Event Time Altitude Azimuth Distance (km) Brightness Sun altitude
Rises 00:59:27 0° 192° (SSW) 17,247 12.0 -48.2°
Enters shadow 01:14:19 - 190° (S) 16,035 11.8 -47.4°
Exits shadow 01:58:38 35° 176° (S) 9,428 10.5 -43.6°
Maximum altitude 02:17:47 50° 133° (SE) 5,417 9.5 -41.4°
Drops below altitude 10° 02:32:12 10° 64° (ENE) 4,670 10.1 -39.6°
Sets 02:34:31 0° 58° (ENE) 5,079 10.6 -39.3°
